User: anonymous   Login
Location: Esp�n
(42.4593°N, 0.2047°W)
Time: 03:07:57
(UTC+00:00)
Language:

Cosmos 1356 Rocket - Orbit

View from above orbital plane
View from above orbital plane
View from above satellite
View from above satellite

Ground track
Ground track

The orbit data is extracted from the following two-line orbital elements,

1 13154U 82039B   20221.87505989 +.00000153 +00000-0 +10593-4 0  9995
2 13154 081.1843 013.1097 0040655 149.3381 211.0227 14.98756283075506
Epoch (UTC): 08 August 2020 21:00:05
Eccentricity: 0.0040655
inclination: 81.1843°
perigee height: 542 km
apogee height: 599 km
right ascension of ascending node: 13.1097°
argument of perigee: 149.3381°
revolutions per day: 14.98756283
mean anomaly at epoch: 211.0227°
orbit number at epoch: 7550

The dashed part of the orbit path shows where the satellite is in the earth's shadow,  

DLR